TimeCST,TemperatureF,Dew PointF,Humidity,Sea Level PressureIn,VisibilityMPH,Wind Direction,Wind SpeedMPH,Gust SpeedMPH,PrecipitationIn,Events,Conditions,WindDirDegrees,DateUTC
12:53 AM,69.1,59.0,70,29.99,10.0,SSE,19.6,27.6,N/A,,Overcast,150,2013-02-18 06:53:00
1:53 AM,69.1,60.1,73,29.97,10.0,SSE,19.6,-,N/A,,Overcast,160,2013-02-18 07:53:00
2:53 AM,69.1,60.1,73,29.96,10.0,SSE,18.4,25.3,N/A,,Overcast,160,2013-02-18 08:53:00
3:53 AM,70.0,61.0,73,29.94,10.0,SSE,18.4,23.0,N/A,,Overcast,160,2013-02-18 09:53:00
4:53 AM,69.1,62.1,78,29.93,10.0,SSE,15.0,-,0.00,,Overcast,160,2013-02-18 10:53:00
5:48 AM,69.8,62.6,78,29.93,10.0,SSE,19.6,25.3,N/A,,Overcast,160,2013-02-18 11:48:00
5:53 AM,69.1,62.1,78,29.94,10.0,South,15.0,-,0.00,Rain,Light Rain,170,2013-02-18 11:53:00
6:30 AM,68.0,64.4,88,29.93,10.0,South,17.3,-,0.00,Rain,Light Rain,170,2013-02-18 12:30:00
6:53 AM,68.0,64.0,87,29.93,10.0,South,15.0,-,0.00,,Overcast,170,2013-02-18 12:53:00
7:53 AM,68.0,64.9,90,29.94,10.0,South,12.7,-,N/A,,Overcast,180,2013-02-18 13:53:00
8:53 AM,71.1,64.9,81,29.95,10.0,South,19.6,-,N/A,,Mostly Cloudy,180,2013-02-18 14:53:00
9:53 AM,73.9,66.0,76,29.96,10.0,South,15.0,27.6,N/A,,Overcast,180,2013-02-18 15:53:00
10:37 AM,78.8,64.4,61,29.96,10.0,South,25.3,33.4,N/A,,Mostly Cloudy,180,2013-02-18 16:37:00
10:45 AM,75.2,64.4,69,29.96,10.0,South,26.5,35.7,N/A,,Mostly Cloudy,180,2013-02-18 16:45:00
10:53 AM,78.1,64.9,64,29.96,10.0,South,25.3,38.0,N/A,,Mostly Cloudy,170,2013-02-18 16:53:00
11:25 AM,77.0,64.4,65,29.95,10.0,South,24.2,34.5,N/A,,Overcast,170,2013-02-18 17:25:00
11:40 AM,77.0,64.4,65,29.95,10.0,South,25.3,32.2,N/A,,Overcast,170,2013-02-18 17:40:00
11:53 AM,77.0,64.0,64,29.95,10.0,South,27.6,34.5,N/A,,Overcast,170,2013-02-18 17:53:00
12:11 PM,77.0,62.6,61,29.94,10.0,South,28.8,38.0,N/A,,Overcast,180,2013-02-18 18:11:00
12:53 PM,78.1,63.0,60,29.92,10.0,South,27.6,34.5,N/A,,Overcast,180,2013-02-18 18:53:00
1:53 PM,81.0,61.0,50,29.90,10.0,SSE,26.5,35.7,N/A,,Overcast,160,2013-02-18 19:53:00
2:53 PM,81.0,61.0,50,29.88,10.0,South,21.9,31.1,N/A,,Clear,170,2013-02-18 20:53:00
3:53 PM,79.0,61.0,54,29.87,10.0,SSE,27.6,34.5,N/A,,Clear,160,2013-02-18 21:53:00
4:53 PM,78.1,61.0,56,29.88,10.0,SSE,20.7,28.8,N/A,,Clear,150,2013-02-18 22:53:00
5:53 PM,73.9,61.0,64,29.90,10.0,SSE,20.7,29.9,N/A,,Clear,160,2013-02-18 23:53:00
6:53 PM,71.1,62.1,73,29.92,10.0,SSE,12.7,-,N/A,,Clear,160,2013-02-19 00:53:00
7:53 PM,69.1,62.1,78,29.95,10.0,SSE,10.4,-,N/A,,Clear,150,2013-02-19 01:53:00
8:53 PM,66.0,61.0,84,29.97,10.0,SSE,8.1,-,N/A,,Clear,160,2013-02-19 02:53:00
9:53 PM,64.0,61.0,90,29.98,10.0,SSE,6.9,-,N/A,,Clear,160,2013-02-19 03:53:00
10:53 PM,64.0,61.0,90,29.99,10.0,SSE,6.9,-,N/A,,Clear,150,2013-02-19 04:53:00
11:53 PM,62.1,60.1,93,30.00,10.0,SSE,5.8,-,N/A,,Clear,160,2013-02-19 05:53:00